Overview Statistics Trail Chart Weather Telemetry Raw packets
 

This is the latest recevied weather packets stored in our database for station/object NR0A-4. If no packets are shown the sender has not sent any weather packets the latest 10 day(s).

<< 94 95 96 97 98 99 100 >>
Time Temp. Humidity Pressure Rain* Wind** Luminosity Snow
1787957104 28.33° C 59% 1014.5 hPa 0 mm - 352 W/m² -
1787956804 28.89° C 59% 1014.6 hPa 0 mm - 369 W/m² -
1787956505 28.89° C 58% 1014.8 hPa 0 mm - 403 W/m² -
1787956204 28.89° C 59% 1014.7 hPa 0 mm - 420 W/m² -
1787955904 28.33° C 59% 1014.7 hPa 0 mm - 420 W/m² -
1787955604 28.33° C 58% 1014.8 hPa 0 mm - 436 W/m² -
1787955304 28.33° C 58% 1014.8 hPa 0 mm - 436 W/m² -
1787955005 28.89° C 58% 1014.9 hPa 0 mm - 455 W/m² -
1787954704 28.89° C 59% 1014.9 hPa 0 mm - 464 W/m² -
1787954404 28.89° C 59% 1014.9 hPa 0 mm - 475 W/m² -
1787954105 28.33° C 59% 1014.9 hPa 0 mm - 492 W/m² -
1787953804 28.89° C 58% 1015 hPa 0 mm - 503 W/m² -
1787953505 28.89° C 59% 1015.1 hPa 0 mm - 512 W/m² -
1787953204 28.89° C 60% 1015.2 hPa 0 mm - 526 W/m² -
1787952905 28.89° C 59% 1015.1 hPa 0 mm - 540 W/m² -
1787952604 28.89° C 59% 1015.3 hPa 0 mm - 550 W/m² -
1787952304 28.89° C 59% 1015.4 hPa 0 mm - 563 W/m² -
1787952004 28.89° C 59% 1015.4 hPa 0 mm - 573 W/m² -
1787951704 28.33° C 60% 1015.4 hPa 0 mm - 584 W/m² -
1787951405 28.33° C 58% 1015.5 hPa 0 mm - 596 W/m² -
1787951104 28.89° C 58% 1015.4 hPa 0 mm - 603 W/m² -
1787950804 28.89° C 60% 1015.7 hPa 0 mm - 619 W/m² -
1787950510 28.89° C 59% 1015.7 hPa 0 mm - 640 W/m² -
1787950205 28.89° C 58% 1015.7 hPa 0 mm - 649 W/m² -
1787949904 28.89° C 59% 1015.9 hPa 0 mm - 668 W/m² -

* Rain latest hour (hover to see other rain measurements)
** Current wind speed in m/s (hover to see current wind gust speed)